Time,TemperatureF,DewpointF,PressureIn,WindDirection,WindDirectionDegrees,WindSpeedMPH,WindSpeedGustMPH,Humidity,HourlyPrecipIn,Conditions,Clouds,dailyrainin,SoftwareType,DateUTC
2013-03-12 00:05:00,39.9,35.2,29.65,SSE,157,10.9,-999.0,83,-99.99,,,0.00,Acu-Link.com,2013-03-12 04:05:00,
2013-03-12 00:20:00,39.4,35.3,29.65,SSE,157,2.7,-999.0,85,-99.99,,,0.00,Acu-Link.com,2013-03-12 04:20:00,
2013-03-12 00:35:00,39.0,35.5,29.64,SSW,202,4.2,-999.0,87,-99.99,,,0.00,Acu-Link.com,2013-03-12 04:35:00,
2013-03-12 00:50:00,39.0,35.2,29.66,South,180,7.3,-999.0,86,-99.99,,,0.00,Acu-Link.com,2013-03-12 04:50:00,
2013-03-12 01:05:00,38.8,35.0,29.66,SSE,157,6.8,-999.0,86,-99.99,,,0.00,Acu-Link.com,2013-03-12 05:05:00,
2013-03-12 01:21:00,38.3,34.5,29.67,South,180,6.3,-999.0,86,-99.99,,,0.00,Acu-Link.com,2013-03-12 05:21:00,
2013-03-12 01:51:00,37.6,33.2,29.66,South,180,5.3,-999.0,84,-99.99,,,0.00,Acu-Link.com,2013-03-12 05:51:00,
2013-03-12 02:06:00,37.4,33.3,29.67,SSE,157,4.7,-999.0,85,-99.99,,,0.00,Acu-Link.com,2013-03-12 06:06:00,
2013-03-12 02:21:00,37.2,32.8,29.68,SSE,157,4.2,-999.0,84,-99.99,,,0.00,Acu-Link.com,2013-03-12 06:21:00,
2013-03-12 02:37:00,37.0,32.3,29.68,South,180,6.3,-999.0,83,-99.99,,,0.00,Acu-Link.com,2013-03-12 06:37:00,
2013-03-12 02:52:00,36.9,32.2,29.68,South,180,5.3,-999.0,83,-99.99,,,0.00,Acu-Link.com,2013-03-12 06:52:00,
2013-03-12 03:07:00,36.1,31.1,29.68,South,180,5.3,-999.0,82,-99.99,,,0.00,Acu-Link.com,2013-03-12 07:07:00,
2013-03-12 03:22:00,36.0,31.0,29.70,West,270,2.7,-999.0,82,-99.99,,,0.00,Acu-Link.com,2013-03-12 07:22:00,
2013-03-12 03:37:00,36.0,30.7,29.70,SSE,157,6.3,-999.0,81,-99.99,,,0.00,Acu-Link.com,2013-03-12 07:37:00,
2013-03-12 03:53:00,36.0,31.0,29.70,SW,225,5.8,-999.0,82,-99.99,,,0.00,Acu-Link.com,2013-03-12 07:53:00,
2013-03-12 04:08:00,35.8,30.9,29.69,SSE,157,2.7,-999.0,82,-99.99,,,0.00,Acu-Link.com,2013-03-12 08:08:00,
2013-03-12 04:23:00,35.6,30.4,29.71,SSW,202,10.4,-999.0,81,-99.99,,,0.00,Acu-Link.com,2013-03-12 08:23:00,
2013-03-12 04:38:00,35.4,30.5,29.70,ESE,112,7.8,-999.0,82,-99.99,,,0.00,Acu-Link.com,2013-03-12 08:38:00,
2013-03-12 04:54:00,35.2,30.9,29.71,South,180,7.3,-999.0,84,-99.99,,,0.00,Acu-Link.com,2013-03-12 08:54:00,
2013-03-12 05:09:00,35.1,31.1,29.71,WSW,247,4.7,-999.0,85,-99.99,,,0.00,Acu-Link.com,2013-03-12 09:09:00,
2013-03-12 05:24:00,34.9,31.1,29.71,SW,225,8.3,-999.0,86,-99.99,,,0.00,Acu-Link.com,2013-03-12 09:24:00,
2013-03-12 05:39:00,34.9,30.9,29.72,South,180,5.3,-999.0,85,-99.99,,,0.00,Acu-Link.com,2013-03-12 09:39:00,
2013-03-12 05:54:00,34.7,30.7,29.72,SW,225,7.8,-999.0,85,-99.99,,,0.00,Acu-Link.com,2013-03-12 09:54:00,
2013-03-12 06:10:00,34.5,30.5,29.72,South,180,3.2,-999.0,85,-99.99,,,0.00,Acu-Link.com,2013-03-12 10:10:00,
2013-03-12 06:25:00,34.3,30.3,29.72,South,180,5.8,-999.0,85,-99.99,,,0.00,Acu-Link.com,2013-03-12 10:25:00,
2013-03-12 06:40:00,34.3,30.6,29.73,SW,225,2.7,-999.0,86,-99.99,,,0.00,Acu-Link.com,2013-03-12 10:40:00,
2013-03-12 06:55:00,34.3,30.6,29.73,South,180,4.2,-999.0,86,-99.99,,,0.00,Acu-Link.com,2013-03-12 10:55:00,
2013-03-12 07:10:00,34.3,30.6,29.74,SSW,202,5.8,-999.0,86,-99.99,,,0.00,Acu-Link.com,2013-03-12 11:10:00,
2013-03-12 07:26:00,34.2,30.7,29.74,South,180,5.8,-999.0,87,-99.99,,,0.00,Acu-Link.com,2013-03-12 11:26:00,
2013-03-12 07:41:00,34.2,31.0,29.74,South,180,4.2,-999.0,88,-99.99,,,0.00,Acu-Link.com,2013-03-12 11:41:00,
2013-03-12 07:56:00,34.0,31.1,29.74,SW,225,2.7,-999.0,89,-99.99,,,0.00,Acu-Link.com,2013-03-12 11:56:00,
2013-03-12 08:11:00,33.8,30.3,29.74,SW,225,9.4,-999.0,87,-99.99,,,0.00,Acu-Link.com,2013-03-12 12:11:00,
2013-03-12 08:27:00,33.6,30.7,29.75,SW,225,3.7,-999.0,89,-99.99,,,0.00,Acu-Link.com,2013-03-12 12:27:00,
2013-03-12 08:42:00,33.6,30.4,29.76,SSW,202,1.7,-999.0,88,-99.99,,,0.00,Acu-Link.com,2013-03-12 12:42:00,
2013-03-12 08:57:00,33.6,30.4,29.76,South,180,4.2,-999.0,88,-99.99,,,0.00,Acu-Link.com,2013-03-12 12:57:00,
2013-03-12 09:12:00,33.6,30.4,29.76,SSW,202,7.8,-999.0,88,-99.99,,,0.00,Acu-Link.com,2013-03-12 13:12:00,
2013-03-12 09:27:00,33.4,30.2,29.77,South,180,4.7,-999.0,88,-99.99,,,0.00,Acu-Link.com,2013-03-12 13:27:00,
2013-03-12 09:43:00,33.6,30.4,29.77,SSW,202,4.2,-999.0,88,-99.99,,,0.00,Acu-Link.com,2013-03-12 13:43:00,
2013-03-12 09:58:00,33.6,30.2,29.77,SW,225,3.7,-999.0,87,-99.99,,,0.00,Acu-Link.com,2013-03-12 13:58:00,
2013-03-12 10:13:00,33.6,29.9,29.78,SW,225,4.7,-999.0,86,-99.99,,,0.00,Acu-Link.com,2013-03-12 14:13:00,
2013-03-12 10:28:00,33.6,29.6,29.78,South,180,2.7,-999.0,85,-99.99,,,0.00,Acu-Link.com,2013-03-12 14:28:00,
2013-03-12 10:43:00,34.5,29.9,29.79,West,270,10.4,-999.0,83,-99.99,,,0.00,Acu-Link.com,2013-03-12 14:43:00,
2013-03-12 10:59:00,34.5,29.9,29.78,SSE,157,10.4,-999.0,83,-99.99,,,0.00,Acu-Link.com,2013-03-12 14:59:00,
2013-03-12 11:14:00,35.1,30.2,29.78,South,180,3.2,-999.0,82,-99.99,,,0.00,Acu-Link.com,2013-03-12 15:14:00,
2013-03-12 11:29:00,34.7,30.1,29.78,SSW,202,3.2,-999.0,83,-99.99,,,0.00,Acu-Link.com,2013-03-12 15:29:00,
2013-03-12 11:45:00,34.9,30.0,29.79,SSE,157,5.3,-999.0,82,-99.99,,,0.00,Acu-Link.com,2013-03-12 15:45:00,
2013-03-12 12:00:00,34.5,29.6,29.79,South,180,4.2,-999.0,82,-99.99,,,0.00,Acu-Link.com,2013-03-12 16:00:00,
2013-03-12 12:15:00,34.2,29.6,29.79,South,180,4.2,-999.0,83,-99.99,,,0.00,Acu-Link.com,2013-03-12 16:15:00,
2013-03-12 12:30:00,34.0,30.3,29.79,SW,225,4.7,-999.0,86,-99.99,,,0.00,Acu-Link.com,2013-03-12 16:30:00,
2013-03-12 12:45:00,33.3,31.5,29.80,SSW,202,3.2,-999.0,93,-99.99,,,0.00,Acu-Link.com,2013-03-12 16:45:00,
2013-03-12 13:01:00,33.4,31.1,29.79,SW,225,6.3,-999.0,91,-99.99,,,0.00,Acu-Link.com,2013-03-12 17:01:00,
2013-03-12 13:46:00,35.2,32.3,29.79,South,180,5.3,-999.0,89,-99.99,,,0.00,Acu-Link.com,2013-03-12 17:46:00,
2013-03-12 14:01:00,34.7,31.8,29.78,SW,225,3.7,-999.0,89,-99.99,,,0.00,Acu-Link.com,2013-03-12 18:01:00,
2013-03-12 14:17:00,35.1,31.1,29.80,SW,225,6.8,-999.0,85,-99.99,,,0.00,Acu-Link.com,2013-03-12 18:17:00,
2013-03-12 14:32:00,34.9,30.3,29.79,SSW,202,4.7,-999.0,83,-99.99,,,0.00,Acu-Link.com,2013-03-12 18:32:00,
2013-03-12 14:47:00,36.0,31.0,29.79,SSE,157,5.8,-999.0,82,-99.99,,,0.00,Acu-Link.com,2013-03-12 18:47:00,
2013-03-12 15:02:00,35.2,30.3,29.79,South,180,2.2,-999.0,82,-99.99,,,0.00,Acu-Link.com,2013-03-12 19:02:00,
2013-03-12 15:18:00,36.0,29.8,29.78,SSW,202,2.7,-999.0,78,-99.99,,,0.00,Acu-Link.com,2013-03-12 19:18:00,
2013-03-12 15:33:00,35.1,28.9,29.79,South,180,4.2,-999.0,78,-99.99,,,0.00,Acu-Link.com,2013-03-12 19:33:00,
2013-03-12 15:48:00,34.7,28.6,29.78,SW,225,12.5,-999.0,78,-99.99,,,0.00,Acu-Link.com,2013-03-12 19:48:00,
2013-03-12 16:03:00,34.7,28.6,29.79,West,270,6.8,-999.0,78,-99.99,,,0.00,Acu-Link.com,2013-03-12 20:03:00,
2013-03-12 16:18:00,34.3,29.1,29.80,SW,225,9.4,-999.0,81,-99.99,,,0.00,Acu-Link.com,2013-03-12 20:18:00,
2013-03-12 16:34:00,34.2,29.0,29.79,South,180,3.2,-999.0,81,-99.99,,,0.00,Acu-Link.com,2013-03-12 20:34:00,
2013-03-12 16:49:00,35.1,28.3,29.80,SSW,202,6.8,-999.0,76,-99.99,,,0.00,Acu-Link.com,2013-03-12 20:49:00,
2013-03-12 17:04:00,35.1,27.3,29.79,SW,225,8.3,-999.0,73,-99.99,,,0.00,Acu-Link.com,2013-03-12 21:04:00,
2013-03-12 17:19:00,34.3,27.2,29.80,SW,225,6.3,-999.0,75,-99.99,,,0.00,Acu-Link.com,2013-03-12 21:19:00,
2013-03-12 17:34:00,34.0,27.9,29.81,SW,225,14.5,-999.0,78,-99.99,,,0.00,Acu-Link.com,2013-03-12 21:34:00,
2013-03-12 17:50:00,33.8,28.0,29.81,South,180,3.2,-999.0,79,-99.99,,,0.00,Acu-Link.com,2013-03-12 21:50:00,
2013-03-12 18:05:00,33.8,28.3,29.82,South,180,4.2,-999.0,80,-99.99,,,0.00,Acu-Link.com,2013-03-12 22:05:00,
2013-03-12 18:20:00,33.4,28.2,29.81,South,180,3.7,-999.0,81,-99.99,,,0.00,Acu-Link.com,2013-03-12 22:20:00,
2013-03-12 18:35:00,33.3,28.4,29.81,SSW,202,7.8,-999.0,82,-99.99,,,0.00,Acu-Link.com,2013-03-12 22:35:00,
2013-03-12 18:51:00,33.3,28.4,29.83,SSW,202,2.7,-999.0,82,-99.99,,,0.00,Acu-Link.com,2013-03-12 22:51:00,
2013-03-12 19:21:00,33.1,28.2,29.83,South,180,4.7,-999.0,82,-99.99,,,0.00,Acu-Link.com,2013-03-12 23:21:00,
2013-03-12 19:36:00,33.1,27.9,29.83,South,180,4.2,-999.0,81,-99.99,,,0.00,Acu-Link.com,2013-03-12 23:36:00,
2013-03-12 20:07:00,32.5,26.1,29.85,South,180,9.9,-999.0,77,-99.99,,,0.00,Acu-Link.com,2013-03-13 00:07:00,
2013-03-12 20:37:00,32.4,26.3,29.85,South,180,5.8,-999.0,78,-99.99,,,0.00,Acu-Link.com,2013-03-13 00:37:00,
2013-03-12 20:52:00,32.2,26.4,29.85,SSW,202,3.2,-999.0,79,-99.99,,,0.00,Acu-Link.com,2013-03-13 00:52:00,
2013-03-12 21:07:00,32.2,26.4,29.86,South,180,4.7,-999.0,79,-99.99,,,0.00,Acu-Link.com,2013-03-13 01:07:00,
2013-03-12 21:23:00,32.2,26.7,29.85,South,180,0.0,-999.0,80,-99.99,,,0.00,Acu-Link.com,2013-03-13 01:23:00,
2013-03-12 21:38:00,32.0,26.5,29.86,NNW,337,2.7,-999.0,80,-99.99,,,0.00,Acu-Link.com,2013-03-13 01:38:00,
2013-03-12 21:53:00,32.0,26.5,29.85,SSW,202,3.2,-999.0,80,-99.99,,,0.00,Acu-Link.com,2013-03-13 01:53:00,
2013-03-12 22:08:00,31.8,26.6,29.86,SSW,202,2.7,-999.0,81,-99.99,,,0.00,Acu-Link.com,2013-03-13 02:08:00,
2013-03-12 22:23:00,31.8,26.6,29.85,SW,225,2.2,-999.0,81,-99.99,,,0.00,Acu-Link.com,2013-03-13 02:23:00,
2013-03-12 22:39:00,31.8,26.6,29.85,South,180,0.0,-999.0,81,-99.99,,,0.00,Acu-Link.com,2013-03-13 02:39:00,
2013-03-12 22:54:00,31.8,26.9,29.86,SSW,202,2.2,-999.0,82,-99.99,,,0.00,Acu-Link.com,2013-03-13 02:54:00,
2013-03-12 23:09:00,31.8,26.9,29.86,SSW,202,1.1,-999.0,82,-99.99,,,0.00,Acu-Link.com,2013-03-13 03:09:00,
2013-03-12 23:24:00,31.8,27.2,29.84,South,180,0.0,-999.0,83,-99.99,,,0.00,Acu-Link.com,2013-03-13 03:24:00,
2013-03-12 23:40:00,31.3,27.0,29.84,South,180,0.0,-999.0,84,-99.99,,,0.00,Acu-Link.com,2013-03-13 03:40:00,
2013-03-12 23:55:00,30.7,26.7,29.84,SSW,202,2.2,-999.0,85,-99.99,,,0.00,Acu-Link.com,2013-03-13 03:55:00,